Orbital Elements at Epoch 2459000.5 (2020-May-31.0) TDB
Reference: JPL 12 (heliocentric ecliptic J2000)
Element | Value | Uncertainty (1-sigma) | Units |
e | .11765111375314 | 6.0542e-08 | |
a | 2.373183626643499 | 1.8971e-08 | au |
q | 2.093975929828175 | 1.5408e-07 | au |
i | 4.834362079123404 | 5.2908e-06 | deg |
node | 72.2432323263772 | 7.4992e-05 | deg |
peri | 183.1183516349508 | 8.1344e-05 | deg |
M | 306.3151354509283 | 3.6879e-05 | deg |
tp | 2459199.633718148565 (2020-Dec-16.13371815) | 0.00013829 | TDB |
period | 1335.351018124587 3.66 | 1.6012e-05 4.384e-08 | d yr |
n | .2695920361865575 | 3.2327e-09 | deg/d |
Q | 2.652391323458823 | 2.1203e-08 | au |
|
| | Orbit Determination Parameters
Additional Information
|